Time,TemperatureF,DewpointF,PressureIn,WindDirection,WindDirectionDegrees,WindSpeedMPH,WindSpeedGustMPH,Humidity,HourlyPrecipIn,Conditions,Clouds,dailyrainin,SoftwareType,DateUTC
2013-08-23 00:11:00,69.3,69.0,29.84,NNE,22,4.2,-999.0,99,-99.99,,,0.00,Acu-Link.com,2013-08-23 04:11:00,
2013-08-23 00:26:00,68.9,68.6,29.84,NE,45,3.7,-999.0,99,-99.99,,,0.00,Acu-Link.com,2013-08-23 04:26:00,
2013-08-23 00:42:00,68.4,68.1,29.84,North,0,4.7,-999.0,99,-99.99,,,0.00,Acu-Link.com,2013-08-23 04:42:00,
2013-08-23 00:57:00,67.8,67.5,29.84,NNW,337,3.7,-999.0,99,-99.99,,,0.00,Acu-Link.com,2013-08-23 04:57:00,
2013-08-23 01:12:00,67.3,67.0,29.83,NNW,337,2.7,-999.0,99,-99.99,,,0.00,Acu-Link.com,2013-08-23 05:12:00,
2013-08-23 01:28:00,67.1,66.8,29.84,NW,315,3.2,-999.0,99,-99.99,,,0.00,Acu-Link.com,2013-08-23 05:28:00,
2013-08-23 01:43:00,66.7,66.4,29.84,NW,315,3.7,-999.0,99,-99.99,,,0.00,Acu-Link.com,2013-08-23 05:43:00,
2013-08-23 01:58:00,66.6,66.3,29.83,NNW,337,1.7,-999.0,99,-99.99,,,0.00,Acu-Link.com,2013-08-23 05:58:00,
2013-08-23 02:13:00,66.6,66.3,29.83,WNW,292,2.7,-999.0,99,-99.99,,,0.00,Acu-Link.com,2013-08-23 06:13:00,
2013-08-23 02:28:00,66.2,65.9,29.82,NNW,337,2.2,-999.0,99,-99.99,,,0.00,Acu-Link.com,2013-08-23 06:28:00,
2013-08-23 02:43:00,66.0,65.7,29.82,NNW,337,2.7,-999.0,99,-99.99,,,0.00,Acu-Link.com,2013-08-23 06:43:00,
2013-08-23 02:59:00,65.3,65.0,29.82,North,0,1.7,-999.0,99,-99.99,,,0.00,Acu-Link.com,2013-08-23 06:59:00,
2013-08-23 03:14:00,65.1,64.8,29.82,NNE,22,2.2,-999.0,99,-99.99,,,0.00,Acu-Link.com,2013-08-23 07:14:00,
2013-08-23 03:29:00,65.1,64.8,29.82,NNW,337,3.2,-999.0,99,-99.99,,,0.00,Acu-Link.com,2013-08-23 07:29:00,
2013-08-23 03:44:00,64.8,64.5,29.82,North,0,3.7,-999.0,99,-99.99,,,0.00,Acu-Link.com,2013-08-23 07:44:00,
2013-08-23 04:00:00,64.6,64.3,29.82,North,0,2.7,-999.0,99,-99.99,,,0.00,Acu-Link.com,2013-08-23 08:00:00,
2013-08-23 04:16:00,64.6,64.3,29.82,NNW,337,3.2,-999.0,99,-99.99,,,0.00,Acu-Link.com,2013-08-23 08:16:00,
2013-08-23 04:31:00,64.6,64.3,29.82,NNW,337,3.7,-999.0,99,-99.99,,,0.00,Acu-Link.com,2013-08-23 08:31:00,
2013-08-23 04:47:00,64.4,64.1,29.81,NNE,22,3.7,-999.0,99,-99.99,,,0.00,Acu-Link.com,2013-08-23 08:47:00,
2013-08-23 05:02:00,64.2,63.9,29.82,NNW,337,3.2,-999.0,99,-99.99,,,0.00,Acu-Link.com,2013-08-23 09:02:00,
2013-08-23 05:18:00,64.0,63.7,29.82,NE,45,2.2,-999.0,99,-99.99,,,0.00,Acu-Link.com,2013-08-23 09:18:00,
2013-08-23 05:33:00,63.7,63.4,29.82,North,0,2.2,-999.0,99,-99.99,,,0.00,Acu-Link.com,2013-08-23 09:33:00,
2013-08-23 05:48:00,63.5,63.2,29.82,NNW,337,2.2,-999.0,99,-99.99,,,0.00,Acu-Link.com,2013-08-23 09:48:00,
2013-08-23 06:03:00,63.5,63.2,29.82,North,0,2.2,-999.0,99,-99.99,,,0.00,Acu-Link.com,2013-08-23 10:03:00,
2013-08-23 06:19:00,63.3,63.0,29.82,North,0,2.2,-999.0,99,-99.99,,,0.00,Acu-Link.com,2013-08-23 10:19:00,
2013-08-23 06:34:00,63.3,63.0,29.82,North,0,2.7,-999.0,99,-99.99,,,0.00,Acu-Link.com,2013-08-23 10:34:00,
2013-08-23 06:49:00,63.3,63.0,29.84,NW,315,1.7,-999.0,99,-99.99,,,0.00,Acu-Link.com,2013-08-23 10:49:00,
2013-08-23 07:04:00,63.3,63.0,29.84,NNW,337,2.7,-999.0,99,-99.99,,,0.00,Acu-Link.com,2013-08-23 11:04:00,
2013-08-23 07:19:00,63.5,63.2,29.84,North,0,3.2,-999.0,99,-99.99,,,0.00,Acu-Link.com,2013-08-23 11:19:00,
2013-08-23 07:34:00,64.0,63.7,29.85,WNW,292,2.2,-999.0,99,-99.99,,,0.00,Acu-Link.com,2013-08-23 11:34:00,
2013-08-23 07:49:00,64.0,63.7,29.85,NW,315,2.2,-999.0,99,-99.99,,,0.00,Acu-Link.com,2013-08-23 11:49:00,
2013-08-23 08:05:00,64.9,64.6,29.85,NNW,337,3.2,-999.0,99,-99.99,,,0.00,Acu-Link.com,2013-08-23 12:05:00,
2013-08-23 08:20:00,65.7,65.4,29.85,North,0,3.2,-999.0,99,-99.99,,,0.00,Acu-Link.com,2013-08-23 12:20:00,
2013-08-23 08:35:00,67.8,67.5,29.86,NE,45,2.2,-999.0,99,-99.99,,,0.00,Acu-Link.com,2013-08-23 12:35:00,
2013-08-23 08:50:00,70.3,70.0,29.86,ENE,67,3.2,-999.0,99,-99.99,,,0.00,Acu-Link.com,2013-08-23 12:50:00,
2013-08-23 09:05:00,70.7,70.4,29.86,North,0,5.3,-999.0,99,-99.99,,,0.00,Acu-Link.com,2013-08-23 13:05:00,
2013-08-23 09:21:00,70.3,70.0,29.86,NNE,22,4.2,-999.0,99,-99.99,,,0.00,Acu-Link.com,2013-08-23 13:21:00,
2013-08-23 09:36:00,70.2,69.9,29.86,NNE,22,5.3,-999.0,99,-99.99,,,0.00,Acu-Link.com,2013-08-23 13:36:00,
2013-08-23 09:51:00,68.9,68.6,29.87,NE,45,4.2,-999.0,99,-99.99,,,0.00,Acu-Link.com,2013-08-23 13:51:00,
2013-08-23 10:06:00,69.3,69.0,29.86,NNE,22,6.3,-999.0,99,-99.99,,,0.00,Acu-Link.com,2013-08-23 14:06:00,
2013-08-23 10:21:00,69.8,69.5,29.87,East,90,5.3,-999.0,99,-99.99,,,0.00,Acu-Link.com,2013-08-23 14:21:00,
2013-08-23 10:37:00,68.5,68.2,29.87,NE,45,4.7,-999.0,99,-99.99,,,0.00,Acu-Link.com,2013-08-23 14:37:00,
2013-08-23 10:52:00,68.7,68.4,29.88,NE,45,4.2,-999.0,99,-99.99,,,0.00,Acu-Link.com,2013-08-23 14:52:00,
2013-08-23 11:07:00,69.8,69.5,29.88,NE,45,4.2,-999.0,99,-99.99,,,0.00,Acu-Link.com,2013-08-23 15:07:00,
2013-08-23 11:22:00,69.1,68.8,29.88,NE,45,2.7,-999.0,99,-99.99,,,0.00,Acu-Link.com,2013-08-23 15:22:00,
2013-08-23 11:38:00,69.6,69.3,29.88,NE,45,6.3,-999.0,99,-99.99,,,0.00,Acu-Link.com,2013-08-23 15:38:00,
2013-08-23 11:53:00,69.8,69.5,29.88,NNE,22,6.3,-999.0,99,-99.99,,,0.00,Acu-Link.com,2013-08-23 15:53:00,
2013-08-23 12:08:00,69.6,69.3,29.89,NW,315,8.3,-999.0,99,-99.99,,,0.00,Acu-Link.com,2013-08-23 16:08:00,
2013-08-23 12:24:00,70.3,70.0,29.88,NNE,22,5.8,-999.0,99,-99.99,,,0.00,Acu-Link.com,2013-08-23 16:24:00,
2013-08-23 12:39:00,69.8,69.5,29.89,North,0,4.2,-999.0,99,-99.99,,,0.00,Acu-Link.com,2013-08-23 16:39:00,
2013-08-23 12:54:00,71.2,70.9,29.89,NNE,22,6.3,-999.0,99,-99.99,,,0.00,Acu-Link.com,2013-08-23 16:54:00,
2013-08-23 13:09:00,71.6,71.3,29.88,NE,45,7.3,-999.0,99,-99.99,,,0.00,Acu-Link.com,2013-08-23 17:09:00,
2013-08-23 13:24:00,72.0,71.7,29.88,North,0,7.3,-999.0,99,-99.99,,,0.00,Acu-Link.com,2013-08-23 17:24:00,
2013-08-23 13:39:00,73.4,72.5,29.88,NNE,22,8.9,-999.0,97,-99.99,,,0.00,Acu-Link.com,2013-08-23 17:39:00,
2013-08-23 13:54:00,76.3,73.1,29.88,NE,45,7.3,-999.0,90,-99.99,,,0.00,Acu-Link.com,2013-08-23 17:54:00,
2013-08-23 14:09:00,76.5,72.7,29.88,NNE,22,4.7,-999.0,88,-99.99,,,0.00,Acu-Link.com,2013-08-23 18:09:00,
2013-08-23 14:24:00,79.2,73.6,29.87,SE,135,4.2,-999.0,83,-99.99,,,0.00,Acu-Link.com,2013-08-23 18:24:00,
2013-08-23 14:39:00,79.5,73.5,29.87,ENE,67,2.7,-999.0,82,-99.99,,,0.00,Acu-Link.com,2013-08-23 18:39:00,
2013-08-23 14:54:00,79.2,72.9,29.87,NNE,22,8.9,-999.0,81,-99.99,,,0.00,Acu-Link.com,2013-08-23 18:54:00,
2013-08-23 15:09:00,80.2,73.1,29.87,North,0,6.3,-999.0,79,-99.99,,,0.00,Acu-Link.com,2013-08-23 19:09:00,
2013-08-23 15:24:00,82.0,72.9,29.87,NE,45,5.8,-999.0,74,-99.99,,,0.00,Acu-Link.com,2013-08-23 19:24:00,
2013-08-23 15:39:00,81.7,73.8,29.85,NNW,337,3.7,-999.0,77,-99.99,,,0.00,Acu-Link.com,2013-08-23 19:39:00,
2013-08-23 15:54:00,81.7,73.4,29.85,ENE,67,3.2,-999.0,76,-99.99,,,0.00,Acu-Link.com,2013-08-23 19:54:00,
2013-08-23 16:10:00,82.8,73.6,29.84,NNE,22,6.3,-999.0,74,-99.99,,,0.00,Acu-Link.com,2013-08-23 20:10:00,
2013-08-23 16:25:00,83.1,73.1,29.84,North,0,6.3,-999.0,72,-99.99,,,0.00,Acu-Link.com,2013-08-23 20:25:00,
2013-08-23 16:40:00,82.0,72.5,29.83,NE,45,5.8,-999.0,73,-99.99,,,0.00,Acu-Link.com,2013-08-23 20:40:00,
2013-08-23 16:55:00,82.6,72.2,29.83,NNW,337,7.8,-999.0,71,-99.99,,,0.00,Acu-Link.com,2013-08-23 20:55:00,
2013-08-23 17:10:00,84.6,72.0,29.83,East,90,4.2,-999.0,66,-99.99,,,0.00,Acu-Link.com,2013-08-23 21:10:00,
2013-08-23 17:25:00,82.0,70.8,29.83,NW,315,7.8,-999.0,69,-99.99,,,0.00,Acu-Link.com,2013-08-23 21:25:00,
2013-08-23 17:41:00,82.2,71.0,29.83,NNE,22,5.3,-999.0,69,-99.99,,,0.00,Acu-Link.com,2013-08-23 21:41:00,
2013-08-23 17:56:00,83.1,70.5,29.83,North,0,9.9,-999.0,66,-99.99,,,0.00,Acu-Link.com,2013-08-23 21:56:00,
2013-08-23 18:11:00,83.5,70.9,29.84,East,90,4.2,-999.0,66,-99.99,,,0.00,Acu-Link.com,2013-08-23 22:11:00,
2013-08-23 18:26:00,82.8,70.7,29.83,North,0,6.3,-999.0,67,-99.99,,,0.00,Acu-Link.com,2013-08-23 22:26:00,
2013-08-23 18:42:00,84.0,70.9,29.83,East,90,3.7,-999.0,65,-99.99,,,0.00,Acu-Link.com,2013-08-23 22:42:00,
2013-08-23 18:57:00,83.1,70.5,29.83,NE,45,6.3,-999.0,66,-99.99,,,0.00,Acu-Link.com,2013-08-23 22:57:00,
2013-08-23 19:12:00,82.8,69.8,29.83,NE,45,4.7,-999.0,65,-99.99,,,0.00,Acu-Link.com,2013-08-23 23:12:00,
2013-08-23 19:27:00,81.5,69.0,29.84,East,90,6.3,-999.0,66,-99.99,,,0.00,Acu-Link.com,2013-08-23 23:27:00,
2013-08-23 19:42:00,81.1,69.9,29.85,NNE,22,3.2,-999.0,69,-99.99,,,0.00,Acu-Link.com,2013-08-23 23:42:00,
2013-08-23 19:57:00,80.4,70.1,29.85,NNE,22,2.2,-999.0,71,-99.99,,,0.00,Acu-Link.com,2013-08-23 23:57:00,
2013-08-23 20:13:00,79.2,69.8,29.85,North,0,2.7,-999.0,73,-99.99,,,0.00,Acu-Link.com,2013-08-24 00:13:00,
2013-08-23 20:28:00,77.7,69.9,29.86,NNE,22,2.2,-999.0,77,-99.99,,,0.00,Acu-Link.com,2013-08-24 00:28:00,
2013-08-23 20:43:00,76.1,69.5,29.87,NNE,22,1.1,-999.0,80,-99.99,,,0.00,Acu-Link.com,2013-08-24 00:43:00,
2013-08-23 20:58:00,74.8,69.3,29.87,NNE,22,1.1,-999.0,83,-99.99,,,0.00,Acu-Link.com,2013-08-24 00:58:00,
2013-08-23 21:13:00,73.8,69.3,29.87,North,0,2.7,-999.0,86,-99.99,,,0.00,Acu-Link.com,2013-08-24 01:13:00,
2013-08-23 21:29:00,72.7,68.9,29.87,NNE,22,2.7,-999.0,88,-99.99,,,0.00,Acu-Link.com,2013-08-24 01:29:00,
2013-08-23 21:44:00,71.8,68.7,29.88,NNE,22,2.7,-999.0,90,-99.99,,,0.00,Acu-Link.com,2013-08-24 01:44:00,
2013-08-23 21:59:00,71.1,68.3,29.88,NNW,337,2.2,-999.0,91,-99.99,,,0.00,Acu-Link.com,2013-08-24 01:59:00,
2013-08-23 22:15:00,70.0,68.5,29.89,NNW,337,2.2,-999.0,95,-99.99,,,0.00,Acu-Link.com,2013-08-24 02:15:00,
2013-08-23 22:30:00,69.1,68.2,29.89,North,0,1.1,-999.0,97,-99.99,,,0.00,Acu-Link.com,2013-08-24 02:30:00,
2013-08-23 22:45:00,68.4,67.8,29.89,NE,45,1.7,-999.0,98,-99.99,,,0.00,Acu-Link.com,2013-08-24 02:45:00,
2013-08-23 23:00:00,68.4,67.8,29.90,ENE,67,2.7,-999.0,98,-99.99,,,0.00,Acu-Link.com,2013-08-24 03:00:00,
2013-08-23 23:16:00,68.4,67.5,29.89,ESE,112,0.0,-999.0,97,-99.99,,,0.00,Acu-Link.com,2013-08-24 03:16:00,
2013-08-23 23:31:00,67.8,66.9,29.90,NNE,22,0.0,-999.0,97,-99.99,,,0.00,Acu-Link.com,2013-08-24 03:31:00,
2013-08-23 23:46:00,67.1,66.5,29.89,North,0,2.2,-999.0,98,-99.99,,,0.00,Acu-Link.com,2013-08-24 03:46:00,